Regional Weather Roundup
Issued by NWS Sioux Falls, SD

Home | Current Version | Previous Version | Graphics & Text | Print | Product List | Glossary On
Versions: 1 2 3 4 5 6 7 8 9 10 11 12 13 14 15 16 17 18 19 20 21 22 23 24 25 26 27 28 29 30 31 32 33 34 35 36 37 38 39 40 41 42 43 44 45 46 47 48 49 50
000
ASUS43 KFSD 301802
RWRFSD

WEATHER ROUNDUP FOR SE SOUTH DAKOTA/SW MINNESOTA/NW IOWA
NATIONAL WEATHER SERVICE SIOUX FALLS SD
100 PM CDT SAT APR 30 2016

NOTE: "FAIR" INDICATES FEW OR NO CLOUDS BELOW 12,000 FEET WITH NO
SIGNIFICANT WEATHER AND OR OBSTRUCTIONS TO VISIBILITY.


SDZ038>040-050-052>070-301900-
SOUTHEAST SOUTH DAKOTA

CITY           SKY/WX    TMP DP  RH WIND       PRES   REMARKS
BROOKINGS      CLOUDY    45  36  70 NE23G32   29.97F
CHAMBERLAIN    NOT AVBL
HURON          CLOUDY    50  38  63 NE23G31   30.01F
6HR MIN TEMP:  41; 6HR MAX TEMP:  51;

MADISON        CLOUDY    41  41 100 NE29      29.96F
MITCHELL       LGT RAIN  44  39  82 NE18G26   29.96F
6HR MIN TEMP:  43; 6HR MAX TEMP:  46; 6HR PCP:  0.10;

SIOUX FALLS    LGT RAIN  43  40  89 NE25G33   29.91F FOG
6HR MIN TEMP:  42; 6HR MAX TEMP:  45; 6HR PCP:  0.42;

WINNER         RAIN      45  38  76 NE24G35   29.95S
YANKTON        CLOUDY    43  39  87 NE17G26   29.86R
$$

MNZ071-072-080-081-089-090-097-098-301900-
SOUTHWEST MINNESOTA

CITY           SKY/WX    TMP DP  RH WIND       PRES   REMARKS
FAIRMONT       CLOUDY    45  36  70 NE24      29.95S
JACKSON        LGT SNOW  43  41  93 NE21      29.96R
LUVERNE        LGT RAIN  43  39  87 NE21G29   29.92F
MARSHALL       CLOUDY    48  38  68 E21       30.01F
6HR MIN TEMP:  40; 6HR MAX TEMP:  48;

MONTEVIDEO     CLOUDY    52  37  58 E24       30.08F
REDWOOD FALLS  CLOUDY    52  35  52 E15G29    30.03F
TRACY          CLOUDY    47  41  78 NE15      30.00F
WINDOM         RAIN      45  41  87 E18G25    29.97F
WORTHINGTON    RAIN      43  41  93 NE26G33   29.93S FOG
$$

IAZ001>003-012>014-020>022-031-032-NEZ013-014-SDZ071-301900-
NORTHWEST IOWA

CITY           SKY/WX    TMP DP  RH WIND       PRES   REMARKS
DENISON        CLOUDY    45  45 100 E21G32    29.75S FOG
ESTHERVILLE    LGT RAIN  44  42  93 NE22      29.93R FOG
SIOUX CITY     CLOUDY    47  42  83 E16G26    29.80R
6HR MIN TEMP:  45; 6HR MAX TEMP:  47; 6HR PCP:  1.03;

SPENCER        HVY RAIN  44  41  89 NE24G33   29.89R FOG
6HR MIN TEMP:  42; 6HR MAX TEMP:  44; 6HR PCP:  0.54;

STORM LAKE     CLOUDY    45  43  93 NE31G43   29.77R
$$

ABBREVIATIONS USED IN REMARKS
   TC - TEMPERATURE IN CELSIUS
  WCI - WIND CHILL INDEX
   HX - HEAT INDEX
  VSB - VISIBILITY





USA.gov is the U.S. government's official web portal to all federal, state and local government web resources and services.